{"data":{"norad_id":66599,"epoch":"2026-05-24T20:19:42.663648Z","epoch_age_seconds":102413,"freshness":"FRESH","line1":"1 66599U 25270M   26144.84702157  .00009864  00000+0  36744-3 0  9995","line2":"2 66599  43.0030 346.0439 0001006 265.8920  94.1817 15.27585691 29353","mean_motion":15.27585691,"eccentricity":0.0001006,"inclination_deg":43.003,"raan_deg":346.0439,"arg_perigee_deg":265.892,"mean_anomaly_deg":94.1817,"bstar":0.00036744,"rev_number":2935,"period_min":94.266397524144,"perigee_km":482.34182158428,"apogee_km":483.72228879818,"semimajor_km":6861.1690551912,"source":"CELESTRAK","updated_at":"2026-05-25T13:38:21.289348Z"}}